DLH560 EDDF-FNBJ

Flight info

Callsign DLH560
Flight time N/A
Altitude 33000
Route ANEKI2L/18 ANEKI Y163 NATOR DCT TRA DCT RIPUS DCT GERSA DCT SOSON DCT ODINA DCT PIDAD DCT TALEP DCT VAREK DCT ERPIN DCT ETOIL DCT CIRTA UA605 CSO UR978 ATAFA/N0475F350 UR978 AS UA604 DLA UG861 MESIN UY339 LIKAD UR526 VNA
Aircraft A346/H-SDE2E3FGHIJ3J4J5M1P2RWXYZ/LB1D1

Departure

Time N/A
Airport Frankfurt Main Airport (EDDF)

Arrival

Time 2026-04-16 05:11
Airport Dr. Antonio Agostinho Neto International Airport (FNBJ)
Time Latitude Longitude Altitude Speed Heading
2026-04-16 03:28 0.77347 10.52674 34897 ft 465 kts 165°
2026-04-16 03:29 0.74207 10.53437 34892 ft 465 kts 165°
2026-04-16 03:29 0.67921 10.54968 34893 ft 465 kts 165°
2026-04-16 03:30 0.61638 10.56491 34897 ft 464 kts 165°
2026-04-16 03:30 0.55356 10.58013 34892 ft 464 kts 165°
2026-04-16 03:31 0.49119 10.59529 34892 ft 464 kts 165°
2026-04-16 03:31 0.42841 10.61055 34883 ft 464 kts 165°
2026-04-16 03:32 0.36563 10.62582 34879 ft 464 kts 165°
2026-04-16 03:34 0.11403 10.68696 34870 ft 465 kts 165°
2026-04-16 03:34 0.06178 10.69966 34871 ft 465 kts 165°
2026-04-16 03:35 -0.00111 10.71495 34869 ft 465 kts 165°
2026-04-16 03:35 -0.06401 10.73023 34871 ft 465 kts 165°
2026-04-16 03:36 -0.12686 10.74548 34869 ft 465 kts 165°
2026-04-16 03:36 -0.18965 10.76072 34869 ft 465 kts 165°
2026-04-16 03:37 -0.25250 10.77598 34868 ft 465 kts 165°
2026-04-16 03:37 -0.31534 10.79123 34875 ft 465 kts 165°
2026-04-16 03:38 -0.37818 10.80649 34876 ft 465 kts 165°
2026-04-16 03:38 -0.44105 10.82175 34876 ft 465 kts 165°
2026-04-16 03:39 -0.50383 10.83699 34880 ft 465 kts 165°
2026-04-16 03:39 -0.56665 10.85224 34880 ft 464 kts 165°
2026-04-16 03:40 -0.62946 10.86748 34884 ft 464 kts 165°
2026-04-16 03:40 -0.69228 10.88274 34891 ft 464 kts 165°
2026-04-16 03:41 -0.75509 10.89798 34890 ft 464 kts 165°
2026-04-16 03:41 -0.81801 10.91324 34890 ft 466 kts 165°
2026-04-16 03:42 -0.88106 10.92853 34891 ft 466 kts 165°
2026-04-16 03:42 -0.94375 10.94374 34885 ft 466 kts 165°
2026-04-16 03:43 -1.00682 10.95904 34888 ft 466 kts 165°
2026-04-16 03:43 -1.06988 10.97434 34890 ft 466 kts 165°
2026-04-16 03:44 -1.13296 10.98964 34885 ft 467 kts 165°
2026-04-16 03:44 -1.19671 11.00511 34888 ft 474 kts 165°
2026-04-16 03:45 -1.26080 11.02066 34896 ft 474 kts 165°
2026-04-16 03:45 -1.32497 11.03623 34897 ft 474 kts 165°
2026-04-16 03:46 -1.38915 11.05181 34897 ft 474 kts 165°
2026-04-16 03:46 -1.45332 11.06738 34896 ft 474 kts 165°
2026-04-16 03:47 -1.51744 11.08295 34887 ft 474 kts 166°
2026-04-16 03:47 -1.58159 11.09853 34888 ft 474 kts 166°
2026-04-16 03:48 -1.64570 11.11408 34889 ft 474 kts 166°
2026-04-16 03:48 -1.70983 11.12964 34883 ft 474 kts 166°
2026-04-16 03:49 -1.77395 11.14521 34886 ft 474 kts 166°
2026-04-16 03:49 -1.83807 11.16077 34874 ft 474 kts 166°
2026-04-16 03:50 -1.90224 11.17635 34875 ft 474 kts 166°
2026-04-16 03:50 -1.96642 11.19193 34868 ft 475 kts 166°
2026-04-16 03:51 -2.03063 11.20753 34870 ft 475 kts 166°
2026-04-16 03:51 -2.09481 11.22311 34872 ft 475 kts 166°
2026-04-16 03:52 -2.15853 11.23859 34871 ft 475 kts 166°
2026-04-16 03:52 -2.22268 11.25417 34872 ft 475 kts 166°
2026-04-16 03:53 -2.28692 11.26976 34867 ft 475 kts 165°
2026-04-16 03:53 -2.35112 11.28537 34866 ft 475 kts 165°
2026-04-16 03:54 -2.41534 11.30098 34873 ft 475 kts 165°
2026-04-16 03:54 -2.47954 11.31659 34871 ft 475 kts 166°
2026-04-16 03:55 -2.54386 11.33221 34873 ft 475 kts 165°
2026-04-16 03:55 -2.60815 11.34783 34875 ft 475 kts 165°
2026-04-16 03:56 -2.67235 11.36344 34876 ft 474 kts 166°
2026-04-16 03:56 -2.73645 11.37902 34877 ft 474 kts 166°
2026-04-16 03:57 -2.80054 11.39460 34874 ft 474 kts 166°
2026-04-16 03:57 -2.86459 11.41017 34873 ft 474 kts 166°
2026-04-16 03:58 -2.92868 11.42575 34875 ft 474 kts 166°
2026-04-16 03:58 -2.99271 11.44133 34875 ft 474 kts 166°
2026-04-16 03:59 -3.05685 11.45691 34873 ft 474 kts 165°
2026-04-16 03:59 -3.12098 11.47252 34877 ft 474 kts 165°
2026-04-16 04:00 -3.18507 11.48812 34871 ft 474 kts 165°
2026-04-16 04:00 -3.24919 11.50372 34871 ft 474 kts 165°
2026-04-16 04:01 -3.31324 11.51931 34873 ft 474 kts 165°
2026-04-16 04:01 -3.37694 11.53482 34866 ft 474 kts 166°
2026-04-16 04:02 -3.44104 11.55044 34866 ft 474 kts 166°
2026-04-16 04:02 -3.50515 11.56603 34867 ft 474 kts 166°
2026-04-16 04:03 -3.56922 11.58163 34865 ft 474 kts 166°
2026-04-16 04:03 -3.63358 11.59635 34864 ft 474 kts 169°
2026-04-16 04:04 -3.69900 11.60511 34863 ft 475 kts 175°
2026-04-16 04:04 -3.76499 11.60974 34862 ft 476 kts 175°
2026-04-16 04:05 -3.83104 11.61417 34863 ft 476 kts 175°
2026-04-16 04:05 -3.89717 11.61865 34859 ft 476 kts 175°
2026-04-16 04:06 -3.96330 11.62316 34861 ft 476 kts 175°
2026-04-16 04:06 -4.02936 11.62768 34862 ft 476 kts 175°
2026-04-16 04:07 -4.09547 11.63221 34858 ft 476 kts 175°
2026-04-16 04:07 -4.19462 11.63900 34858 ft 476 kts 175°
2026-04-16 04:08 -4.26072 11.64353 34853 ft 476 kts 175°
2026-04-16 04:08 -4.32683 11.64806 34858 ft 476 kts 175°
2026-04-16 04:09 -4.39293 11.65259 34851 ft 476 kts 175°
2026-04-16 04:09 -4.45903 11.65712 34850 ft 476 kts 175°
2026-04-16 04:10 -4.52511 11.66164 34848 ft 476 kts 175°
2026-04-16 04:10 -4.59070 11.66615 34848 ft 476 kts 175°
2026-04-16 04:11 -4.65674 11.67069 34850 ft 476 kts 175°
2026-04-16 04:11 -4.72280 11.67523 34849 ft 476 kts 175°
2026-04-16 04:12 -4.78883 11.67976 34838 ft 475 kts 175°
2026-04-16 04:12 -4.85478 11.68430 34830 ft 475 kts 175°
2026-04-16 04:13 -4.92074 11.68882 34838 ft 475 kts 175°
2026-04-16 04:13 -4.98676 11.69337 34843 ft 475 kts 175°
2026-04-16 04:14 -5.05264 11.69867 34845 ft 475 kts 172°
2026-04-16 04:14 -5.11771 11.70980 34845 ft 474 kts 166°
2026-04-16 04:15 -5.18108 11.72771 34845 ft 473 kts 160°
2026-04-16 04:15 -5.24247 11.75161 34847 ft 473 kts 156°
2026-04-16 04:16 -5.30339 11.77681 34848 ft 474 kts 156°
2026-04-16 04:16 -5.36435 11.80202 34847 ft 474 kts 156°
2026-04-16 04:17 -5.42532 11.82719 34849 ft 474 kts 156°
2026-04-16 04:17 -5.48589 11.85218 34851 ft 474 kts 156°
2026-04-16 04:18 -5.54686 11.87733 34850 ft 474 kts 156°
2026-04-16 04:18 -5.60825 11.90266 34849 ft 474 kts 156°
2026-04-16 04:19 -5.66876 11.92764 34850 ft 474 kts 156°
2026-04-16 04:19 -5.72970 11.95279 34849 ft 473 kts 156°
2026-04-16 04:20 -5.79070 11.97796 34852 ft 473 kts 156°
2026-04-16 04:20 -5.85161 12.00312 34853 ft 473 kts 156°
2026-04-16 04:21 -5.91255 12.02829 34853 ft 473 kts 156°
2026-04-16 04:21 -5.97348 12.05347 34852 ft 474 kts 157°
2026-04-16 04:22 -6.03445 12.07867 34855 ft 474 kts 157°
2026-04-16 04:22 -6.08565 12.09982 34866 ft 474 kts 157°
2026-04-16 04:23 -6.14629 12.12489 34849 ft 474 kts 157°
2026-04-16 04:23 -6.20732 12.15013 34862 ft 474 kts 157°
2026-04-16 04:24 -6.26838 12.17538 34850 ft 474 kts 157°
2026-04-16 04:24 -6.32981 12.20080 34853 ft 474 kts 157°
2026-04-16 04:25 -6.39045 12.22590 34857 ft 475 kts 157°
2026-04-16 04:25 -6.45161 12.25121 34858 ft 475 kts 157°
2026-04-16 04:26 -6.51267 12.27649 34857 ft 475 kts 157°
2026-04-16 04:26 -6.57379 12.30181 34845 ft 475 kts 157°
2026-04-16 04:27 -6.63489 12.32712 34849 ft 475 kts 157°
2026-04-16 04:27 -6.69598 12.35244 34859 ft 475 kts 157°
2026-04-16 04:28 -6.75694 12.37772 34851 ft 474 kts 157°
2026-04-16 04:28 -6.81795 12.40301 34849 ft 474 kts 157°
2026-04-16 04:29 -6.87888 12.42828 34855 ft 474 kts 157°
2026-04-16 04:29 -6.93986 12.45357 34855 ft 474 kts 157°
2026-04-16 04:30 -7.00082 12.47887 34855 ft 474 kts 157°
2026-04-16 04:30 -7.06181 12.50416 34864 ft 474 kts 157°
2026-04-16 04:31 -7.12270 12.52942 34852 ft 473 kts 157°
2026-04-16 04:31 -7.18355 12.55465 34825 ft 473 kts 157°
2026-04-16 04:32 -7.21400 12.56728 34585 ft 472 kts 157°
2026-04-16 04:32 -7.24431 12.57985 34348 ft 470 kts 157°
2026-04-16 04:32 -7.27445 12.59236 34128 ft 468 kts 157°
2026-04-16 04:32 -7.30448 12.60482 33899 ft 465 kts 157°
2026-04-16 04:33 -7.33436 12.61723 33651 ft 464 kts 157°
2026-04-16 04:33 -7.36420 12.62962 33393 ft 464 kts 157°
2026-04-16 04:33 -7.39404 12.64202 33142 ft 465 kts 157°
2026-04-16 04:33 -7.42396 12.65445 32893 ft 466 kts 157°
2026-04-16 04:34 -7.45398 12.66694 32637 ft 467 kts 157°
2026-04-16 04:34 -7.48402 12.67941 32393 ft 467 kts 157°
2026-04-16 04:34 -7.51411 12.69191 32147 ft 468 kts 157°
2026-04-16 04:34 -7.54424 12.70443 31907 ft 469 kts 157°
2026-04-16 04:35 -7.57445 12.71700 31668 ft 470 kts 157°
2026-04-16 04:35 -7.60475 12.72959 31361 ft 471 kts 157°
2026-04-16 04:35 -7.63508 12.74220 30938 ft 472 kts 157°
2026-04-16 04:35 -7.66550 12.75486 30383 ft 473 kts 157°
2026-04-16 04:36 -7.69598 12.76752 29752 ft 474 kts 157°
2026-04-16 04:36 -7.72646 12.78020 29053 ft 474 kts 157°
2026-04-16 04:36 -7.75693 12.79289 28365 ft 474 kts 157°
2026-04-16 04:36 -7.78744 12.80558 27681 ft 474 kts 157°
2026-04-16 04:37 -7.81797 12.81829 27000 ft 474 kts 157°
2026-04-16 04:37 -7.84851 12.83100 26316 ft 475 kts 157°
2026-04-16 04:37 -7.87896 12.84368 25791 ft 471 kts 157°
2026-04-16 04:37 -7.90912 12.85623 25361 ft 466 kts 157°
2026-04-16 04:38 -7.93893 12.86865 24856 ft 463 kts 157°
2026-04-16 04:38 -7.96862 12.88101 24377 ft 459 kts 157°
2026-04-16 04:38 -7.99799 12.89325 23921 ft 456 kts 156°
2026-04-16 04:38 -8.02716 12.90540 23481 ft 452 kts 156°
2026-04-16 04:39 -8.05614 12.91748 22956 ft 448 kts 156°
2026-04-16 04:39 -8.08479 12.92943 22498 ft 443 kts 156°
2026-04-16 04:39 -8.11319 12.94128 22058 ft 438 kts 157°
2026-04-16 04:39 -8.14085 12.95281 21624 ft 434 kts 156°
2026-04-16 04:40 -8.16861 12.96436 21189 ft 430 kts 156°
2026-04-16 04:40 -8.19614 12.97587 20768 ft 426 kts 156°
2026-04-16 04:40 -8.22336 12.98727 20343 ft 422 kts 157°
2026-04-16 04:40 -8.25039 12.99856 19923 ft 418 kts 157°
2026-04-16 04:41 -8.27718 13.00972 19496 ft 415 kts 157°
2026-04-16 04:41 -8.30381 13.02082 19092 ft 412 kts 156°
2026-04-16 04:41 -8.33015 13.03183 18672 ft 409 kts 157°
2026-04-16 04:41 -8.35641 13.04278 18262 ft 406 kts 157°
2026-04-16 04:42 -8.38246 13.05363 17797 ft 403 kts 157°
2026-04-16 04:42 -8.40830 13.06440 17352 ft 400 kts 157°
2026-04-16 04:42 -8.43393 13.07509 16915 ft 397 kts 156°
2026-04-16 04:42 -8.45932 13.08570 16491 ft 394 kts 156°
2026-04-16 04:43 -8.48457 13.09624 16075 ft 391 kts 156°
2026-04-16 04:43 -8.50964 13.10671 15656 ft 388 kts 156°
2026-04-16 04:43 -8.53455 13.11712 15234 ft 386 kts 156°
2026-04-16 04:43 -8.55929 13.12747 14817 ft 384 kts 156°
2026-04-16 04:44 -8.58391 13.13775 14410 ft 382 kts 156°
2026-04-16 04:44 -8.60839 13.14798 13990 ft 380 kts 156°
2026-04-16 04:44 -8.63275 13.15816 13563 ft 378 kts 156°
2026-04-16 04:44 -8.65701 13.16831 13118 ft 376 kts 156°
2026-04-16 04:45 -8.68103 13.17837 12703 ft 373 kts 156°
2026-04-16 04:45 -8.70505 13.18843 12278 ft 370 kts 156°
2026-04-16 04:45 -8.72898 13.19845 11859 ft 367 kts 156°
2026-04-16 04:45 -8.75248 13.20828 11451 ft 364 kts 156°
2026-04-16 04:46 -8.77591 13.21809 11053 ft 361 kts 156°
2026-04-16 04:46 -8.79879 13.22791 10834 ft 350 kts 152°
2026-04-16 04:46 -8.81738 13.24260 10685 ft 333 kts 127°
2026-04-16 04:46 -8.82796 13.26270 10551 ft 318 kts 105°
2026-04-16 04:47 -8.83039 13.28449 10411 ft 305 kts 85°
2026-04-16 04:47 -8.82564 13.30492 10256 ft 292 kts 70°
2026-04-16 04:47 -8.81873 13.32380 10203 ft 280 kts 69°
2026-04-16 04:47 -8.81194 13.34197 10117 ft 273 kts 70°
2026-04-16 04:48 -8.80532 13.35986 10035 ft 269 kts 70°
2026-04-16 04:48 -8.79884 13.37756 9929 ft 268 kts 70°
2026-04-16 04:48 -8.79241 13.39529 9600 ft 269 kts 70°
2026-04-16 04:48 -8.78609 13.41279 9272 ft 268 kts 70°
2026-04-16 04:49 -8.77963 13.43069 8973 ft 266 kts 70°
2026-04-16 04:49 -8.77341 13.44798 8688 ft 264 kts 70°
2026-04-16 04:49 -8.76715 13.46538 8409 ft 262 kts 70°
2026-04-16 04:49 -8.76093 13.48269 8126 ft 261 kts 70°
2026-04-16 04:50 -8.75474 13.49989 7848 ft 259 kts 70°
2026-04-16 04:50 -8.74857 13.51704 7574 ft 258 kts 70°
2026-04-16 04:50 -8.74242 13.53412 7298 ft 258 kts 70°
2026-04-16 04:50 -8.73630 13.55113 7031 ft 257 kts 70°
2026-04-16 04:51 -8.73019 13.56811 6743 ft 256 kts 71°
2026-04-16 04:51 -8.72745 13.58582 6417 ft 257 kts 96°
2026-04-16 04:51 -8.73314 13.60285 6113 ft 258 kts 122°
2026-04-16 04:51 -8.74570 13.61571 5811 ft 259 kts 143°
2026-04-16 04:52 -8.76039 13.62613 5543 ft 258 kts 144°
2026-04-16 04:52 -8.77516 13.63642 5244 ft 257 kts 144°
2026-04-16 04:52 -8.78984 13.64672 4990 ft 257 kts 144°
2026-04-16 04:52 -8.80447 13.65705 4712 ft 256 kts 144°
2026-04-16 04:53 -8.81905 13.66741 4435 ft 256 kts 144°
2026-04-16 04:53 -8.83358 13.67775 4144 ft 255 kts 144°
2026-04-16 04:53 -8.84808 13.68811 3867 ft 254 kts 144°
2026-04-16 04:53 -8.86238 13.69832 3658 ft 249 kts 145°
2026-04-16 04:54 -8.87681 13.70756 3420 ft 244 kts 160°
2026-04-16 04:54 -8.89336 13.70952 3153 ft 240 kts 191°
2026-04-16 04:54 -8.90850 13.70315 2991 ft 233 kts 213°
2026-04-16 04:54 -8.92036 13.69277 2982 ft 219 kts 227°
2026-04-16 04:55 -8.92982 13.68114 2980 ft 211 kts 232°
2026-04-16 04:55 -8.93860 13.66919 2989 ft 211 kts 233°
2026-04-16 04:55 -8.94722 13.65725 3034 ft 205 kts 232°
2026-04-16 04:55 -8.95536 13.64606 2993 ft 192 kts 232°
2026-04-16 04:56 -8.96331 13.63524 2991 ft 191 kts 232°
2026-04-16 04:56 -8.97126 13.62446 2977 ft 191 kts 232°
2026-04-16 04:56 -8.97921 13.61370 2775 ft 190 kts 232°
2026-04-16 04:56 -8.98704 13.60311 2521 ft 184 kts 232°
2026-04-16 04:57 -8.99440 13.59314 2295 ft 175 kts 231°
2026-04-16 04:57 -9.00152 13.58350 2070 ft 166 kts 231°
2026-04-16 04:57 -9.00834 13.57425 1849 ft 162 kts 230°
2026-04-16 04:57 -9.01508 13.56515 1665 ft 161 kts 230°
2026-04-16 04:58 -9.02209 13.55632 1450 ft 160 kts 225°
2026-04-16 04:58 -9.02959 13.54794 1352 ft 161 kts 230°
2026-04-16 04:58 -9.03619 13.53877 1170 ft 160 kts 233°
2026-04-16 04:58 -9.04249 13.52945 995 ft 160 kts 233°
2026-04-16 04:59 -9.04944 13.51954 1278 ft 180 kts 233°
2026-04-16 04:59 -9.05719 13.50974 2109 ft 177 kts 213°
2026-04-16 04:59 -9.06888 13.50653 2689 ft 182 kts 178°
2026-04-16 04:59 -9.08154 13.51062 2977 ft 206 kts 148°
2026-04-16 05:00 -9.09106 13.52180 2982 ft 216 kts 115°
2026-04-16 05:00 -9.09272 13.53685 2996 ft 220 kts 80°
2026-04-16 05:00 -9.08549 13.55055 3017 ft 230 kts 46°
2026-04-16 05:00 -9.07209 13.55979 3024 ft 236 kts 34°
2026-04-16 05:01 -9.06049 13.57136 2966 ft 235 kts 57°
2026-04-16 05:01 -9.05182 13.58547 2982 ft 236 kts 61°
2026-04-16 05:01 -9.04376 13.59993 2990 ft 236 kts 62°
2026-04-16 05:01 -9.03581 13.61445 2996 ft 235 kts 62°
2026-04-16 05:02 -9.02790 13.62898 2994 ft 235 kts 62°
2026-04-16 05:02 -9.02021 13.64361 2991 ft 235 kts 65°
2026-04-16 05:02 -9.01346 13.65824 2983 ft 222 kts 67°
2026-04-16 05:02 -9.00726 13.67223 3026 ft 216 kts 67°
2026-04-16 05:03 -9.00319 13.68659 3009 ft 207 kts 82°
2026-04-16 05:03 -9.00176 13.70055 2974 ft 194 kts 86°
2026-04-16 05:03 -9.00076 13.71410 2985 ft 192 kts 87°
2026-04-16 05:04 -8.99799 13.74106 2982 ft 194 kts 66°
2026-04-16 05:04 -8.98844 13.75032 2973 ft 197 kts 18°
2026-04-16 05:04 -8.97496 13.75039 3012 ft 198 kts 343°
2026-04-16 05:04 -8.96199 13.74565 3019 ft 197 kts 339°
2026-04-16 05:05 -8.94919 13.74068 3011 ft 197 kts 339°
2026-04-16 05:05 -8.93663 13.73512 2991 ft 197 kts 327°
2026-04-16 05:05 -8.92665 13.72580 2990 ft 196 kts 304°
2026-04-16 05:05 -8.92083 13.71346 3008 ft 194 kts 282°
2026-04-16 05:06 -8.92068 13.70002 2989 ft 192 kts 255°
2026-04-16 05:06 -8.92562 13.68755 2999 ft 191 kts 240°
2026-04-16 05:06 -8.93279 13.67628 2989 ft 190 kts 233°
2026-04-16 05:06 -8.94070 13.66550 2991 ft 190 kts 232°
2026-04-16 05:07 -8.94874 13.65484 3003 ft 191 kts 232°
2026-04-16 05:07 -8.95407 13.64774 2986 ft 191 kts 232°
2026-04-16 05:07 -8.96205 13.63705 2990 ft 190 kts 232°
2026-04-16 05:07 -8.97256 13.62284 2959 ft 190 kts 232°
2026-04-16 05:08 -8.98044 13.61215 2731 ft 187 kts 232°
2026-04-16 05:08 -8.98798 13.60193 2470 ft 175 kts 231°
2026-04-16 05:08 -8.99502 13.59236 2262 ft 164 kts 231°
2026-04-16 05:08 -9.00181 13.58317 2055 ft 162 kts 231°
2026-04-16 05:09 -9.00635 13.57702 1933 ft 162 kts 231°
2026-04-16 05:09 -9.01302 13.56784 1713 ft 161 kts 232°
2026-04-16 05:09 -9.01967 13.55875 1542 ft 160 kts 230°
2026-04-16 05:09 -9.02670 13.55004 1322 ft 160 kts 228°
2026-04-16 05:10 -9.03381 13.54137 1145 ft 160 kts 230°
2026-04-16 05:10 -9.04042 13.53234 935 ft 160 kts 233°
2026-04-16 05:10 -9.04686 13.52314 718 ft 160 kts 233°
2026-04-16 05:10 -9.05323 13.51398 571 ft 153 kts 234°
2026-04-16 05:11 -9.05856 13.50636 546 ft 106 kts 235°
2026-04-16 05:11 -9.06179 13.50173 545 ft 58 kts 234°
2026-04-16 05:11 -9.06391 13.49869 545 ft 51 kts 235°
2026-04-16 05:11 -9.06585 13.49590 542 ft 48 kts 234°
2026-04-16 05:12 -9.06775 13.49317 539 ft 46 kts 235°
2026-04-16 05:12 -9.06889 13.49152 540 ft 16 kts 236°
2026-04-16 05:12 -9.06870 13.49052 540 ft 17 kts 330°
2026-04-16 05:12 -9.06760 13.49086 541 ft 19 kts 51°
2026-04-16 05:13 -9.06673 13.49203 541 ft 22 kts 54°
2026-04-16 05:13 -9.06579 13.49334 542 ft 24 kts 54°
2026-04-16 05:13 -9.06477 13.49472 542 ft 24 kts 53°
2026-04-16 05:13 -9.06379 13.49606 544 ft 22 kts 53°
2026-04-16 05:14 -9.06294 13.49721 544 ft 19 kts 53°
2026-04-16 05:14 -9.06243 13.49788 544 ft 11 kts 44°
2026-04-16 05:14 -9.06176 13.49771 544 ft 13 kts 321°
2026-04-16 05:14 -9.06100 13.49712 546 ft 15 kts 322°
2026-04-16 05:15 -9.06008 13.49641 543 ft 18 kts 323°
2026-04-16 05:15 -9.05899 13.49559 542 ft 21 kts 323°
2026-04-16 05:15 -9.05780 13.49468 543 ft 20 kts 323°
2026-04-16 05:15 -9.05663 13.49379 543 ft 21 kts 323°
2026-04-16 05:16 -9.05553 13.49295 542 ft 19 kts 323°
2026-04-16 05:16 -9.05462 13.49226 542 ft 12 kts 323°
2026-04-16 05:16 -9.05392 13.49237 542 ft 12 kts 45°
2026-04-16 05:16 -9.05336 13.49312 542 ft 14 kts 53°
2026-04-16 05:17 -9.05274 13.49393 542 ft 13 kts 52°
2026-04-16 05:17 -9.05212 13.49474 542 ft 11 kts 53°
2026-04-16 05:17 -9.05161 13.49544 542 ft 14 kts 53°
2026-04-16 05:17 -9.05113 13.49608 543 ft 0 kts 53°
2026-04-16 05:18 -9.05108 13.49614 542 ft 2 kts 53°
2026-04-16 05:18 -9.05096 13.49635 542 ft 4 kts 73°
2026-04-16 05:18 -9.05092 13.49651 542 ft 0 kts 80°
2026-04-16 05:19 -9.05093 13.49654 542 ft 1 kts 112°
2026-04-16 05:19 -9.05106 13.49665 542 ft 2 kts 142°
2026-04-16 05:19 -9.05111 13.49669 542 ft 0 kts 142°